Time,TemperatureF,DewpointF,PressureIn,WindDirection,WindDirectionDegrees,WindSpeedMPH,WindSpeedGustMPH,Humidity,HourlyPrecipIn,Conditions,Clouds,dailyrainin,SoftwareType,DateUTC
2013-03-08 00:02:00,33.4,25.6,30.35,East,90,0.0,1.9,73,0.00,,,0.00,WUHU21623XXSP,2013-03-08 05:02:00,
2013-03-08 00:15:00,33.1,25.3,30.35,NNE,22,0.0,3.0,73,0.00,,,0.00,WUHU21623XXSP,2013-03-08 05:15:00,
2013-03-08 00:20:00,33.1,25.3,30.35,NNE,22,2.3,3.0,73,0.00,,,0.00,WUHU21623XXSP,2013-03-08 05:20:00,
2013-03-08 00:25:00,33.1,25.6,30.35,North,0,0.0,2.7,74,0.00,,,0.00,WUHU21623XXSP,2013-03-08 05:25:00,
2013-03-08 00:30:00,32.9,25.5,30.35,ESE,112,2.6,3.8,74,0.00,,,0.00,WUHU21623XXSP,2013-03-08 05:30:00,
2013-03-08 00:35:00,32.9,25.5,30.35,NNE,22,2.9,3.8,74,0.00,,,0.00,WUHU21623XXSP,2013-03-08 05:35:00,
2013-03-08 00:40:00,32.9,25.5,30.35,NNE,22,0.0,3.3,74,0.00,,,0.00,WUHU21623XXSP,2013-03-08 05:40:00,
2013-03-08 00:45:00,32.9,25.5,30.34,ESE,112,3.8,4.4,74,0.00,,,0.00,WUHU21623XXSP,2013-03-08 05:45:00,
2013-03-08 00:50:00,32.9,25.5,30.34,NNE,22,1.7,4.4,74,0.00,,,0.00,WUHU21623XXSP,2013-03-08 05:50:00,
2013-03-08 00:55:00,32.7,25.3,30.34,NNE,22,0.0,4.4,74,0.00,,,0.00,WUHU21623XXSP,2013-03-08 05:55:00,
2013-03-08 01:00:00,32.7,25.3,30.34,NNE,22,0.0,0.0,74,0.00,,,0.00,WUHU21623XXSP,2013-03-08 06:00:00,
2013-03-08 01:05:00,32.7,25.3,30.34,NNE,22,0.0,0.0,74,0.00,,,0.00,WUHU21623XXSP,2013-03-08 06:05:00,
2013-03-08 01:19:00,32.2,25.1,30.34,NNE,22,0.0,0.0,75,0.00,,,0.00,WUHU21623XXSP,2013-03-08 06:19:00,
2013-03-08 01:24:00,31.8,24.8,30.34,East,90,0.9,1.0,75,0.00,,,0.00,WUHU21623XXSP,2013-03-08 06:24:00,
2013-03-08 01:29:00,31.8,24.8,30.34,North,0,0.0,1.0,75,0.00,,,0.00,WUHU21623XXSP,2013-03-08 06:29:00,
2013-03-08 01:34:00,31.6,24.6,30.34,East,90,2.9,3.3,75,0.00,,,0.00,WUHU21623XXSP,2013-03-08 06:34:00,
2013-03-08 01:39:00,31.6,24.6,30.35,East,90,0.0,3.3,75,0.00,,,0.00,WUHU21623XXSP,2013-03-08 06:39:00,
2013-03-08 01:44:00,31.5,24.4,30.35,NNE,22,0.0,0.0,75,0.00,,,0.00,WUHU21623XXSP,2013-03-08 06:44:00,
2013-03-08 01:49:00,31.3,24.6,30.35,NNE,22,0.0,0.0,76,0.00,,,0.00,WUHU21623XXSP,2013-03-08 06:49:00,
2013-03-08 01:54:00,31.1,24.4,30.35,East,90,1.7,1.9,76,0.00,,,0.00,WUHU21623XXSP,2013-03-08 06:54:00,
2013-03-08 01:59:00,30.9,24.5,30.34,East,90,0.0,1.9,77,0.00,,,0.00,WUHU21623XXSP,2013-03-08 06:59:00,
2013-03-08 02:04:00,30.9,24.5,30.34,East,90,0.0,1.9,77,0.00,,,0.00,WUHU21623XXSP,2013-03-08 07:04:00,
2013-03-08 02:15:00,30.7,24.4,30.34,ESE,112,0.0,0.0,77,0.00,,,0.00,WUHU21623XXSP,2013-03-08 07:15:00,
2013-03-08 02:20:00,30.7,24.4,30.34,ESE,112,0.0,0.0,77,0.00,,,0.00,WUHU21623XXSP,2013-03-08 07:20:00,
2013-03-08 02:25:00,30.6,24.2,30.34,NNE,22,0.0,0.0,77,0.00,,,0.00,WUHU21623XXSP,2013-03-08 07:25:00,
2013-03-08 02:30:00,30.6,24.2,30.34,East,90,0.0,0.0,77,0.00,,,0.00,WUHU21623XXSP,2013-03-08 07:30:00,
2013-03-08 02:35:00,30.4,24.3,30.34,NNE,22,0.0,0.0,78,0.00,,,0.00,WUHU21623XXSP,2013-03-08 07:35:00,
2013-03-08 02:40:00,30.4,24.3,30.34,East,90,0.0,0.0,78,0.00,,,0.00,WUHU21623XXSP,2013-03-08 07:40:00,
2013-03-08 02:45:00,30.4,24.3,30.34,NNE,22,0.0,0.0,78,0.00,,,0.00,WUHU21623XXSP,2013-03-08 07:45:00,
2013-03-08 02:50:00,30.4,24.3,30.35,NNE,22,0.0,0.0,78,0.00,,,0.00,WUHU21623XXSP,2013-03-08 07:50:00,
2013-03-08 02:55:00,30.4,24.3,30.34,East,90,0.0,1.7,78,0.00,,,0.00,WUHU21623XXSP,2013-03-08 07:55:00,
2013-03-08 03:00:00,30.4,24.3,30.35,East,90,0.0,1.7,78,0.00,,,0.00,WUHU21623XXSP,2013-03-08 08:00:00,
2013-03-08 03:05:00,30.2,24.2,30.34,ESE,112,0.9,1.0,78,0.00,,,0.00,WUHU21623XXSP,2013-03-08 08:05:00,
2013-03-08 03:10:00,30.2,24.2,30.34,ESE,112,0.0,1.0,78,0.00,,,0.00,WUHU21623XXSP,2013-03-08 08:10:00,
2013-03-08 03:15:00,30.2,24.2,30.34,NNE,22,0.0,0.0,78,0.00,,,0.00,WUHU21623XXSP,2013-03-08 08:15:00,
2013-03-08 03:20:00,30.0,24.0,30.34,East,90,0.0,0.0,78,0.00,,,0.00,WUHU21623XXSP,2013-03-08 08:20:00,
2013-03-08 03:25:00,30.0,24.3,30.34,NNE,22,0.0,0.0,79,0.00,,,0.00,WUHU21623XXSP,2013-03-08 08:25:00,
2013-03-08 03:30:00,30.0,24.3,30.34,ESE,112,0.0,0.0,79,0.00,,,0.00,WUHU21623XXSP,2013-03-08 08:30:00,
2013-03-08 03:35:00,30.0,24.3,30.34,SSW,202,0.0,0.0,79,0.00,,,0.00,WUHU21623XXSP,2013-03-08 08:35:00,
2013-03-08 03:40:00,29.7,23.9,30.35,SSW,202,0.0,0.0,79,0.00,,,0.00,WUHU21623XXSP,2013-03-08 08:40:00,
2013-03-08 03:45:00,29.3,23.6,30.34,East,90,0.0,0.0,79,0.00,,,0.00,WUHU21623XXSP,2013-03-08 08:45:00,
2013-03-08 03:50:00,29.1,23.7,30.34,East,90,0.0,0.0,80,0.00,,,0.00,WUHU21623XXSP,2013-03-08 08:50:00,
2013-03-08 03:55:00,28.9,23.5,30.34,NNE,22,0.0,0.0,80,0.00,,,0.00,WUHU21623XXSP,2013-03-08 08:55:00,
2013-03-08 04:00:00,28.6,23.2,30.35,SSW,202,0.0,0.0,80,0.00,,,0.00,WUHU21623XXSP,2013-03-08 09:00:00,
2013-03-08 04:05:00,28.4,23.0,30.35,SSW,202,0.0,0.0,80,0.00,,,0.00,WUHU21623XXSP,2013-03-08 09:05:00,
2013-03-08 04:10:00,28.2,23.1,30.35,SSW,202,0.0,0.0,81,0.00,,,0.00,WUHU21623XXSP,2013-03-08 09:10:00,
2013-03-08 04:15:00,28.2,23.1,30.35,ESE,112,0.0,0.0,81,0.00,,,0.00,WUHU21623XXSP,2013-03-08 09:15:00,
2013-03-08 04:20:00,28.0,23.2,30.35,ESE,112,0.0,0.0,82,0.00,,,0.00,WUHU21623XXSP,2013-03-08 09:20:00,
2013-03-08 04:25:00,28.0,23.2,30.35,East,90,1.4,1.7,82,0.00,,,0.00,WUHU21623XXSP,2013-03-08 09:25:00,
2013-03-08 04:30:00,27.7,22.9,30.35,East,90,0.0,1.9,82,0.00,,,0.00,WUHU21623XXSP,2013-03-08 09:30:00,
2013-03-08 04:35:00,27.7,22.9,30.35,South,180,0.0,1.9,82,0.00,,,0.00,WUHU21623XXSP,2013-03-08 09:35:00,
2013-03-08 04:40:00,27.5,22.7,30.35,East,90,0.0,0.0,82,0.00,,,0.00,WUHU21623XXSP,2013-03-08 09:40:00,
2013-03-08 04:45:00,27.5,23.0,30.35,ESE,112,0.0,0.0,83,0.00,,,0.00,WUHU21623XXSP,2013-03-08 09:45:00,
2013-03-08 04:50:00,27.5,23.0,30.36,SSW,202,0.0,0.0,83,0.00,,,0.00,WUHU21623XXSP,2013-03-08 09:50:00,
2013-03-08 04:55:00,27.5,23.0,30.35,SSW,202,0.0,0.0,83,0.00,,,0.00,WUHU21623XXSP,2013-03-08 09:55:00,
2013-03-08 05:01:00,27.5,23.0,30.36,ESE,112,0.0,0.0,83,0.00,,,0.00,WUHU21623XXSP,2013-03-08 10:01:00,
2013-03-08 05:06:00,27.3,23.1,30.36,ESE,112,1.7,1.9,84,0.00,,,0.00,WUHU21623XXSP,2013-03-08 10:06:00,
2013-03-08 05:11:00,27.5,23.3,30.36,ESE,112,1.7,1.9,84,0.00,,,0.00,WUHU21623XXSP,2013-03-08 10:11:00,
2013-03-08 05:16:00,27.7,23.4,30.36,East,90,0.0,1.9,84,0.00,,,0.00,WUHU21623XXSP,2013-03-08 10:16:00,
2013-03-08 05:21:00,28.0,23.5,30.36,East,90,0.0,1.9,83,0.00,,,0.00,WUHU21623XXSP,2013-03-08 10:21:00,
2013-03-08 05:26:00,28.2,24.0,30.36,NNE,22,0.0,0.0,84,0.00,,,0.00,WUHU21623XXSP,2013-03-08 10:26:00,
2013-03-08 05:31:00,28.2,23.7,30.36,East,90,0.0,0.0,83,0.00,,,0.00,WUHU21623XXSP,2013-03-08 10:31:00,
2013-03-08 05:36:00,28.6,24.0,30.36,ESE,112,0.0,0.0,83,0.00,,,0.00,WUHU21623XXSP,2013-03-08 10:36:00,
2013-03-08 05:41:00,28.6,24.0,30.36,NNE,22,0.0,0.0,83,0.00,,,0.00,WUHU21623XXSP,2013-03-08 10:41:00,
2013-03-08 05:46:00,28.9,24.4,30.36,East,90,0.0,0.0,83,0.00,,,0.00,WUHU21623XXSP,2013-03-08 10:46:00,
2013-03-08 05:51:00,29.1,24.6,30.36,NNE,22,0.0,0.0,83,0.00,,,0.00,WUHU21623XXSP,2013-03-08 10:51:00,
2013-03-08 05:56:00,29.1,24.6,30.36,NNE,22,0.0,0.0,83,0.00,,,0.00,WUHU21623XXSP,2013-03-08 10:56:00,
2013-03-08 06:01:00,29.1,24.6,30.36,NNE,22,0.0,0.0,83,0.00,,,0.00,WUHU21623XXSP,2013-03-08 11:01:00,
2013-03-08 06:06:00,29.1,24.6,30.37,South,180,0.0,0.0,83,0.00,,,0.00,WUHU21623XXSP,2013-03-08 11:06:00,
2013-03-08 06:11:00,29.1,24.6,30.37,West,270,0.0,0.0,83,0.00,,,0.00,WUHU21623XXSP,2013-03-08 11:11:00,
2013-03-08 06:16:00,28.9,24.4,30.38,SSW,202,0.0,0.0,83,0.00,,,0.00,WUHU21623XXSP,2013-03-08 11:16:00,
2013-03-08 06:21:00,28.9,24.1,30.38,SSW,202,0.0,0.0,82,0.00,,,0.00,WUHU21623XXSP,2013-03-08 11:21:00,
2013-03-08 06:26:00,28.8,23.9,30.38,South,180,0.0,0.0,82,0.00,,,0.00,WUHU21623XXSP,2013-03-08 11:26:00,
2013-03-08 06:31:00,28.6,23.8,30.38,ESE,112,0.0,0.0,82,0.00,,,0.00,WUHU21623XXSP,2013-03-08 11:31:00,
2013-03-08 06:36:00,28.2,23.4,30.38,ESE,112,0.0,0.0,82,0.00,,,0.00,WUHU21623XXSP,2013-03-08 11:36:00,
2013-03-08 06:41:00,28.2,23.7,30.38,East,90,0.0,0.0,83,0.00,,,0.00,WUHU21623XXSP,2013-03-08 11:41:00,
2013-03-08 06:46:00,28.2,23.7,30.38,ESE,112,0.0,0.0,83,0.00,,,0.00,WUHU21623XXSP,2013-03-08 11:46:00,
2013-03-08 06:51:00,28.2,23.7,30.38,East,90,0.0,0.0,83,0.00,,,0.00,WUHU21623XXSP,2013-03-08 11:51:00,
2013-03-08 06:56:00,28.2,23.4,30.38,South,180,0.0,0.0,82,0.00,,,0.00,WUHU21623XXSP,2013-03-08 11:56:00,
2013-03-08 07:01:00,28.0,23.5,30.38,West,270,0.0,0.0,83,0.00,,,0.00,WUHU21623XXSP,2013-03-08 12:01:00,
2013-03-08 07:06:00,28.0,23.5,30.38,ESE,112,0.0,0.0,83,0.00,,,0.00,WUHU21623XXSP,2013-03-08 12:06:00,
2013-03-08 07:11:00,28.0,23.5,30.38,ESE,112,0.0,0.0,83,0.00,,,0.00,WUHU21623XXSP,2013-03-08 12:11:00,
2013-03-08 07:16:00,28.0,23.5,30.38,ESE,112,0.0,0.0,83,0.00,,,0.00,WUHU21623XXSP,2013-03-08 12:16:00,
2013-03-08 07:21:00,27.7,23.1,30.39,South,180,0.0,0.0,83,0.00,,,0.00,WUHU21623XXSP,2013-03-08 12:21:00,
2013-03-08 07:26:00,27.7,23.1,30.39,SSW,202,0.0,0.0,83,0.00,,,0.00,WUHU21623XXSP,2013-03-08 12:26:00,
2013-03-08 07:31:00,27.7,23.4,30.39,NNE,22,0.0,0.0,84,0.00,,,0.00,WUHU21623XXSP,2013-03-08 12:31:00,
2013-03-08 07:36:00,27.7,23.4,30.39,ESE,112,0.0,0.0,84,0.00,,,0.00,WUHU21623XXSP,2013-03-08 12:36:00,
2013-03-08 07:41:00,27.7,23.4,30.40,East,90,0.0,0.0,84,0.00,,,0.00,WUHU21623XXSP,2013-03-08 12:41:00,
2013-03-08 07:46:00,28.0,23.8,30.40,East,90,0.0,0.0,84,0.00,,,0.00,WUHU21623XXSP,2013-03-08 12:46:00,
2013-03-08 07:51:00,28.2,24.0,30.40,NNE,22,0.0,0.0,84,0.00,,,0.00,WUHU21623XXSP,2013-03-08 12:51:00,
2013-03-08 07:56:00,29.1,24.9,30.39,ESE,112,0.0,0.0,84,0.00,,,0.00,WUHU21623XXSP,2013-03-08 12:56:00,
2013-03-08 08:01:00,29.7,25.4,30.40,ESE,112,1.7,1.9,84,0.00,,,0.00,WUHU21623XXSP,2013-03-08 13:01:00,
2013-03-08 08:07:00,30.6,26.0,30.40,ESE,112,2.6,3.0,83,0.00,,,0.00,WUHU21623XXSP,2013-03-08 13:07:00,
2013-03-08 08:12:00,30.9,26.4,30.40,WNW,292,0.0,3.0,83,0.00,,,0.00,WUHU21623XXSP,2013-03-08 13:12:00,
2013-03-08 08:17:00,31.3,26.7,30.40,North,0,0.0,3.0,83,0.00,,,0.00,WUHU21623XXSP,2013-03-08 13:17:00,
2013-03-08 08:22:00,31.8,27.0,30.40,NNE,22,0.0,0.0,82,0.00,,,0.00,WUHU21623XXSP,2013-03-08 13:22:00,
2013-03-08 08:27:00,32.7,27.5,30.40,NNE,22,0.0,0.0,81,0.00,,,0.00,WUHU21623XXSP,2013-03-08 13:27:00,
2013-03-08 08:32:00,33.6,27.7,30.40,East,90,1.4,3.3,79,0.00,,,0.00,WUHU21623XXSP,2013-03-08 13:32:00,
2013-03-08 08:37:00,34.0,27.8,30.40,NNE,22,0.0,3.3,78,0.00,,,0.00,WUHU21623XXSP,2013-03-08 13:37:00,
2013-03-08 08:42:00,34.3,27.5,30.40,NNE,22,2.3,4.6,76,0.00,,,0.00,WUHU21623XXSP,2013-03-08 13:42:00,
2013-03-08 08:47:00,34.3,27.5,30.41,NNE,22,0.0,4.6,76,0.00,,,0.00,WUHU21623XXSP,2013-03-08 13:47:00,
2013-03-08 08:52:00,34.7,27.5,30.41,North,0,1.7,2.7,75,0.00,,,0.00,WUHU21623XXSP,2013-03-08 13:52:00,
2013-03-08 08:57:00,35.2,27.7,30.41,NNE,22,0.0,3.3,74,0.00,,,0.00,WUHU21623XXSP,2013-03-08 13:57:00,
2013-03-08 09:02:00,35.4,27.9,30.41,WNW,292,0.0,3.3,74,0.00,,,0.00,WUHU21623XXSP,2013-03-08 14:02:00,
2013-03-08 09:07:00,36.1,28.3,30.41,NNE,22,0.0,3.0,73,0.00,,,0.00,WUHU21623XXSP,2013-03-08 14:07:00,
2013-03-08 09:12:00,37.0,28.5,30.41,East,90,2.6,3.8,71,0.00,,,0.00,WUHU21623XXSP,2013-03-08 14:12:00,
2013-03-08 09:17:00,37.8,28.5,30.41,NNE,22,0.0,3.8,69,0.00,,,0.00,WUHU21623XXSP,2013-03-08 14:17:00,
2013-03-08 09:22:00,37.9,28.3,30.41,NNE,22,2.1,11.1,68,0.00,,,0.00,WUHU21623XXSP,2013-03-08 14:22:00,
2013-03-08 09:27:00,38.1,28.1,30.41,East,90,3.8,11.1,67,0.00,,,0.00,WUHU21623XXSP,2013-03-08 14:27:00,
2013-03-08 09:32:00,38.5,28.0,30.40,NNE,22,4.7,5.4,66,0.00,,,0.00,WUHU21623XXSP,2013-03-08 14:32:00,
2013-03-08 09:37:00,39.0,28.1,30.40,NNE,22,2.6,5.4,65,0.00,,,0.00,WUHU21623XXSP,2013-03-08 14:37:00,
2013-03-08 09:42:00,39.4,28.1,30.40,East,90,9.4,10.8,64,0.00,,,0.00,WUHU21623XXSP,2013-03-08 14:42:00,
2013-03-08 09:47:00,39.6,28.3,30.40,NNE,22,4.9,10.8,64,0.00,,,0.00,WUHU21623XXSP,2013-03-08 14:47:00,
2013-03-08 09:52:00,40.6,29.4,30.40,North,0,1.7,10.8,64,0.00,,,0.00,WUHU21623XXSP,2013-03-08 14:52:00,
2013-03-08 09:57:00,41.0,29.0,30.40,East,90,2.6,5.7,62,0.00,,,0.00,WUHU21623XXSP,2013-03-08 14:57:00,
2013-03-08 10:02:00,41.2,28.8,30.40,East,90,0.0,5.4,61,0.00,,,0.00,WUHU21623XXSP,2013-03-08 15:02:00,
2013-03-08 10:07:00,41.2,27.9,30.40,NNE,22,3.5,6.8,59,0.00,,,0.00,WUHU21623XXSP,2013-03-08 15:07:00,
2013-03-08 10:13:00,41.5,28.3,30.40,East,90,7.5,8.7,59,0.00,,,0.00,WUHU21623XXSP,2013-03-08 15:13:00,
2013-03-08 10:18:00,41.7,28.4,30.40,ESE,112,5.2,8.7,59,0.00,,,0.00,WUHU21623XXSP,2013-03-08 15:18:00,
2013-03-08 10:23:00,42.1,28.7,30.39,NNE,22,0.0,8.7,59,0.00,,,0.00,WUHU21623XXSP,2013-03-08 15:23:00,
2013-03-08 10:28:00,42.8,29.0,30.39,North,0,0.0,4.6,58,0.00,,,0.00,WUHU21623XXSP,2013-03-08 15:28:00,
2013-03-08 10:33:00,43.0,27.8,30.39,ESE,112,4.7,5.4,55,0.00,,,0.00,WUHU21623XXSP,2013-03-08 15:33:00,
2013-03-08 10:38:00,43.3,28.6,30.39,East,90,2.3,11.4,56,0.00,,,0.00,WUHU21623XXSP,2013-03-08 15:38:00,
2013-03-08 10:43:00,43.2,28.0,30.39,ESE,112,2.3,11.4,55,0.00,,,0.00,WUHU21623XXSP,2013-03-08 15:43:00,
2013-03-08 10:48:00,44.1,28.4,30.39,NNE,22,6.4,7.4,54,0.00,,,0.00,WUHU21623XXSP,2013-03-08 15:48:00,
2013-03-08 10:53:00,44.2,28.6,30.39,East,90,4.0,7.4,54,0.00,,,0.00,WUHU21623XXSP,2013-03-08 15:53:00,
2013-03-08 10:58:00,44.2,28.1,30.39,ESE,112,4.9,7.4,53,0.00,,,0.00,WUHU21623XXSP,2013-03-08 15:58:00,
2013-03-08 11:03:00,45.0,29.3,30.39,North,0,3.3,6.8,54,0.00,,,0.00,WUHU21623XXSP,2013-03-08 16:03:00,
2013-03-08 11:08:00,46.0,29.8,30.38,ESE,112,4.0,5.7,53,0.00,,,0.00,WUHU21623XXSP,2013-03-08 16:08:00,
2013-03-08 11:13:00,45.7,28.6,30.39,NNE,22,2.6,7.6,51,0.00,,,0.00,WUHU21623XXSP,2013-03-08 16:13:00,
2013-03-08 11:18:00,46.0,28.4,30.39,ESE,112,4.0,7.6,50,0.00,,,0.00,WUHU21623XXSP,2013-03-08 16:18:00,
2013-03-08 11:23:00,46.0,28.9,30.39,WNW,292,1.4,4.6,51,0.00,,,0.00,WUHU21623XXSP,2013-03-08 16:23:00,
2013-03-08 11:28:00,46.6,29.8,30.39,North,0,3.5,4.6,52,0.00,,,0.00,WUHU21623XXSP,2013-03-08 16:28:00,
2013-03-08 11:33:00,47.5,29.2,30.38,NNE,22,3.8,4.6,49,0.00,,,0.00,WUHU21623XXSP,2013-03-08 16:33:00,
2013-03-08 11:38:00,48.0,29.7,30.38,SSW,202,0.0,4.6,49,0.00,,,0.00,WUHU21623XXSP,2013-03-08 16:38:00,
2013-03-08 11:43:00,48.9,30.5,30.38,NNE,22,2.6,4.4,49,0.00,,,0.00,WUHU21623XXSP,2013-03-08 16:43:00,
2013-03-08 11:48:00,49.1,29.6,30.38,East,90,6.1,7.0,47,0.00,,,0.00,WUHU21623XXSP,2013-03-08 16:48:00,
2013-03-08 11:53:00,48.7,28.7,30.39,East,90,4.0,7.0,46,0.00,,,0.00,WUHU21623XXSP,2013-03-08 16:53:00,
2013-03-08 11:58:00,48.9,30.0,30.38,West,270,0.0,7.0,48,0.00,,,0.00,WUHU21623XXSP,2013-03-08 16:58:00,
2013-03-08 12:03:00,49.8,30.9,30.39,NNE,22,2.9,4.6,48,0.00,,,0.00,WUHU21623XXSP,2013-03-08 17:03:00,
2013-03-08 12:08:00,50.2,30.1,30.38,West,270,4.7,5.4,46,0.00,,,0.00,WUHU21623XXSP,2013-03-08 17:08:00,
2013-03-08 12:13:00,49.6,29.6,30.38,ESE,112,0.0,5.4,46,0.00,,,0.00,WUHU21623XXSP,2013-03-08 17:13:00,
2013-03-08 12:18:00,50.5,29.9,30.38,East,90,1.2,5.4,45,0.00,,,0.00,WUHU21623XXSP,2013-03-08 17:18:00,
2013-03-08 12:23:00,50.9,30.2,30.38,WNW,292,3.8,4.4,45,0.00,,,0.00,WUHU21623XXSP,2013-03-08 17:23:00,
2013-03-08 12:28:00,51.1,29.2,30.38,NNE,22,3.3,4.4,43,0.00,,,0.00,WUHU21623XXSP,2013-03-08 17:28:00,
2013-03-08 12:33:00,50.2,30.1,30.39,ESE,112,3.5,4.4,46,0.00,,,0.00,WUHU21623XXSP,2013-03-08 17:33:00,
2013-03-08 12:39:00,49.5,29.4,30.39,WNW,292,2.1,4.1,46,0.00,,,0.00,WUHU21623XXSP,2013-03-08 17:39:00,
2013-03-08 12:44:00,50.7,31.2,30.39,WNW,292,2.1,4.1,47,0.00,,,0.00,WUHU21623XXSP,2013-03-08 17:44:00,
2013-03-08 12:49:00,51.6,31.4,30.39,North,0,3.5,4.1,46,0.00,,,0.00,WUHU21623XXSP,2013-03-08 17:49:00,
2013-03-08 12:54:00,51.6,30.8,30.39,North,0,2.1,4.1,45,0.00,,,0.00,WUHU21623XXSP,2013-03-08 17:54:00,
2013-03-08 12:59:00,51.6,30.8,30.39,North,0,2.1,4.1,45,0.00,,,0.00,WUHU21623XXSP,2013-03-08 17:59:00,
2013-03-08 13:04:00,51.4,31.2,30.38,WNW,292,1.2,4.4,46,0.00,,,0.00,WUHU21623XXSP,2013-03-08 18:04:00,
2013-03-08 13:09:00,51.6,30.8,30.38,WNW,292,0.0,4.4,45,0.00,,,0.00,WUHU21623XXSP,2013-03-08 18:09:00,
2013-03-08 13:14:00,52.0,30.1,30.38,WNW,292,1.7,5.4,43,0.00,,,0.00,WUHU21623XXSP,2013-03-08 18:14:00,
2013-03-08 13:19:00,52.3,30.9,30.37,WNW,292,2.6,5.4,44,0.00,,,0.00,WUHU21623XXSP,2013-03-08 18:19:00,
2013-03-08 13:24:00,52.0,30.6,30.37,WNW,292,2.9,3.3,44,0.00,,,0.00,WUHU21623XXSP,2013-03-08 18:24:00,
2013-03-08 13:29:00,52.5,30.5,30.36,ESE,112,1.2,5.7,43,0.00,,,0.00,WUHU21623XXSP,2013-03-08 18:29:00,
2013-03-08 13:34:00,52.5,29.4,30.36,North,0,1.7,5.7,41,0.00,,,0.00,WUHU21623XXSP,2013-03-08 18:34:00,
2013-03-08 13:39:00,52.3,29.3,30.35,North,0,4.4,5.1,42,0.00,,,0.00,WUHU21623XXSP,2013-03-08 18:39:00,
2013-03-08 13:44:00,52.7,29.6,30.36,WNW,292,1.7,5.7,41,0.00,,,0.00,WUHU21623XXSP,2013-03-08 18:44:00,
2013-03-08 13:49:00,52.7,29.6,30.36,NNE,22,2.9,5.7,41,0.00,,,0.00,WUHU21623XXSP,2013-03-08 18:49:00,
2013-03-08 13:54:00,53.2,29.5,30.36,North,0,0.0,3.3,40,0.00,,,0.00,WUHU21623XXSP,2013-03-08 18:54:00,
2013-03-08 13:59:00,54.0,29.5,30.35,NNE,22,1.7,3.3,39,0.00,,,0.00,WUHU21623XXSP,2013-03-08 18:59:00,
2013-03-08 14:04:00,54.1,29.6,30.33,NNE,22,4.9,5.7,39,0.00,,,0.00,WUHU21623XXSP,2013-03-08 19:04:00,
2013-03-08 14:09:00,54.3,29.1,30.33,ESE,112,0.0,5.7,38,0.00,,,0.00,WUHU21623XXSP,2013-03-08 19:09:00,
2013-03-08 14:14:00,54.1,28.3,30.32,NNE,22,2.1,5.7,37,0.00,,,0.00,WUHU21623XXSP,2013-03-08 19:14:00,
2013-03-08 14:19:00,54.5,29.3,30.32,NNE,22,0.0,2.4,38,0.00,,,0.00,WUHU21623XXSP,2013-03-08 19:19:00,
2013-03-08 14:24:00,54.9,28.9,30.32,East,90,3.3,3.8,37,0.00,,,0.00,WUHU21623XXSP,2013-03-08 19:24:00,
2013-03-08 14:29:00,54.5,27.9,30.32,ESE,112,3.8,4.4,36,0.00,,,0.00,WUHU21623XXSP,2013-03-08 19:29:00,
2013-03-08 14:34:00,54.3,28.4,30.32,NNE,22,0.0,4.4,37,0.00,,,0.00,WUHU21623XXSP,2013-03-08 19:34:00,
2013-03-08 14:39:00,55.2,28.5,30.31,North,0,2.9,4.4,36,0.00,,,0.00,WUHU21623XXSP,2013-03-08 19:39:00,
2013-03-08 14:44:00,55.2,28.5,30.32,North,0,0.0,3.3,36,0.00,,,0.00,WUHU21623XXSP,2013-03-08 19:44:00,
2013-03-08 14:49:00,55.4,28.7,30.31,NNE,22,1.2,3.3,36,0.00,,,0.00,WUHU21623XXSP,2013-03-08 19:49:00,
2013-03-08 14:55:00,55.8,30.4,30.31,North,0,1.7,4.6,38,0.00,,,0.00,WUHU21623XXSP,2013-03-08 19:55:00,
2013-03-08 15:00:00,56.1,30.0,30.31,East,90,2.9,4.6,37,0.00,,,0.00,WUHU21623XXSP,2013-03-08 20:00:00,
2013-03-08 15:05:00,56.1,28.1,30.30,North,0,3.3,4.4,35,0.00,,,0.00,WUHU21623XXSP,2013-03-08 20:05:00,
2013-03-08 15:10:00,55.0,27.6,30.30,ESE,112,7.0,8.1,35,0.00,,,0.00,WUHU21623XXSP,2013-03-08 20:10:00,
2013-03-08 15:15:00,55.6,29.5,30.30,North,0,0.0,8.1,37,0.00,,,0.00,WUHU21623XXSP,2013-03-08 20:15:00,
2013-03-08 15:20:00,55.6,27.4,30.30,East,90,0.0,8.1,34,0.00,,,0.00,WUHU21623XXSP,2013-03-08 20:20:00,
2013-03-08 15:25:00,54.7,27.3,30.30,East,90,2.6,8.1,35,0.00,,,0.00,WUHU21623XXSP,2013-03-08 20:25:00,
2013-03-08 15:30:00,54.5,27.2,30.30,East,90,5.2,8.1,35,0.00,,,0.00,WUHU21623XXSP,2013-03-08 20:30:00,
2013-03-08 15:35:00,55.4,28.7,30.30,ESE,112,4.9,6.0,36,0.00,,,0.00,WUHU21623XXSP,2013-03-08 20:35:00,
2013-03-08 15:40:00,55.4,27.9,30.30,NNE,22,2.6,6.0,35,0.00,,,0.00,WUHU21623XXSP,2013-03-08 20:40:00,
2013-03-08 15:45:00,55.6,28.1,30.29,ESE,112,7.0,8.1,35,0.00,,,0.00,WUHU21623XXSP,2013-03-08 20:45:00,
2013-03-08 15:50:00,55.0,28.3,30.29,NNE,22,5.2,8.1,36,0.00,,,0.00,WUHU21623XXSP,2013-03-08 20:50:00,
2013-03-08 15:55:00,55.2,28.5,30.29,East,90,6.4,8.1,36,0.00,,,0.00,WUHU21623XXSP,2013-03-08 20:55:00,
2013-03-08 16:00:00,55.4,28.7,30.29,NNE,22,0.0,7.4,36,0.00,,,0.00,WUHU21623XXSP,2013-03-08 21:00:00,
2013-03-08 16:05:00,55.9,29.1,30.29,NNE,22,4.0,7.4,36,0.00,,,0.00,WUHU21623XXSP,2013-03-08 21:05:00,
2013-03-08 16:10:00,55.2,28.5,30.29,ESE,112,0.0,4.6,36,0.00,,,0.00,WUHU21623XXSP,2013-03-08 21:10:00,
2013-03-08 16:15:00,55.2,28.5,30.29,North,0,2.9,4.6,36,0.00,,,0.00,WUHU21623XXSP,2013-03-08 21:15:00,
2013-03-08 16:20:00,55.8,29.7,30.29,East,90,0.0,3.3,37,0.00,,,0.00,WUHU21623XXSP,2013-03-08 21:20:00,
2013-03-08 16:25:00,55.6,28.1,30.29,East,90,2.9,5.4,35,0.00,,,0.00,WUHU21623XXSP,2013-03-08 21:25:00,
2013-03-08 16:30:00,55.6,28.8,30.28,East,90,0.0,5.4,36,0.00,,,0.00,WUHU21623XXSP,2013-03-08 21:30:00,
2013-03-08 16:35:00,55.9,29.1,30.28,South,180,1.4,4.1,36,0.00,,,0.00,WUHU21623XXSP,2013-03-08 21:35:00,
2013-03-08 16:40:00,55.8,29.0,30.28,East,90,2.9,4.1,36,0.00,,,0.00,WUHU21623XXSP,2013-03-08 21:40:00,
2013-03-08 16:45:00,55.6,28.1,30.28,NNE,22,2.9,4.1,35,0.00,,,0.00,WUHU21623XXSP,2013-03-08 21:45:00,
2013-03-08 16:50:00,55.4,27.9,30.28,NNE,22,3.3,3.8,35,0.00,,,0.00,WUHU21623XXSP,2013-03-08 21:50:00,
2013-03-08 16:55:00,55.4,28.7,30.28,NNE,22,2.9,3.8,36,0.00,,,0.00,WUHU21623XXSP,2013-03-08 21:55:00,
2013-03-08 17:00:00,55.0,28.3,30.29,SSW,202,0.0,3.8,36,0.00,,,0.00,WUHU21623XXSP,2013-03-08 22:00:00,
2013-03-08 17:05:00,55.2,29.2,30.29,South,180,2.1,3.8,37,0.00,,,0.00,WUHU21623XXSP,2013-03-08 22:05:00,
2013-03-08 17:10:00,55.0,29.0,30.29,ESE,112,0.0,3.8,37,0.00,,,0.00,WUHU21623XXSP,2013-03-08 22:10:00,
2013-03-08 17:15:00,54.5,27.9,30.29,ESE,112,4.9,5.7,36,0.00,,,0.00,WUHU21623XXSP,2013-03-08 22:15:00,
2013-03-08 17:20:00,54.1,28.3,30.29,ESE,112,3.8,5.7,37,0.00,,,0.00,WUHU21623XXSP,2013-03-08 22:20:00,
2013-03-08 17:25:00,53.8,27.9,30.29,East,90,4.7,5.7,37,0.00,,,0.00,WUHU21623XXSP,2013-03-08 22:25:00,
2013-03-08 17:30:00,53.8,27.9,30.29,South,180,3.3,5.4,37,0.00,,,0.00,WUHU21623XXSP,2013-03-08 22:30:00,
2013-03-08 17:35:00,53.8,29.3,30.29,NNE,22,0.0,5.4,39,0.00,,,0.00,WUHU21623XXSP,2013-03-08 22:35:00,
2013-03-08 17:41:00,53.8,28.6,30.29,East,90,1.7,3.8,38,0.00,,,0.00,WUHU21623XXSP,2013-03-08 22:41:00,
2013-03-08 17:46:00,53.4,28.3,30.29,NNE,22,2.3,2.7,38,0.00,,,0.00,WUHU21623XXSP,2013-03-08 22:46:00,
2013-03-08 17:51:00,53.4,29.0,30.29,ESE,112,2.3,2.7,39,0.00,,,0.00,WUHU21623XXSP,2013-03-08 22:51:00,
2013-03-08 17:56:00,53.4,28.3,30.30,ESE,112,2.3,4.4,38,0.00,,,0.00,WUHU21623XXSP,2013-03-08 22:56:00,
2013-03-08 18:01:00,53.1,28.0,30.29,East,90,0.0,4.4,38,0.00,,,0.00,WUHU21623XXSP,2013-03-08 23:01:00,
2013-03-08 18:06:00,52.9,27.8,30.29,NNE,22,1.7,5.4,38,0.00,,,0.00,WUHU21623XXSP,2013-03-08 23:06:00,
2013-03-08 18:11:00,52.9,27.8,30.30,East,90,3.8,5.4,38,0.00,,,0.00,WUHU21623XXSP,2013-03-08 23:11:00,
2013-03-08 18:16:00,52.5,28.2,30.29,East,90,0.0,4.6,39,0.00,,,0.00,WUHU21623XXSP,2013-03-08 23:16:00,
2013-03-08 18:21:00,52.2,28.5,30.30,South,180,0.0,4.4,40,0.00,,,0.00,WUHU21623XXSP,2013-03-08 23:21:00,
2013-03-08 18:26:00,51.6,28.1,30.30,South,180,0.0,0.0,40,0.00,,,0.00,WUHU21623XXSP,2013-03-08 23:26:00,
2013-03-08 18:31:00,51.1,28.7,30.30,South,180,2.1,2.4,42,0.00,,,0.00,WUHU21623XXSP,2013-03-08 23:31:00,
2013-03-08 18:36:00,50.5,29.3,30.30,East,90,0.0,2.4,44,0.00,,,0.00,WUHU21623XXSP,2013-03-08 23:36:00,
2013-03-08 18:41:00,49.1,29.1,30.30,ESE,112,0.0,2.4,46,0.00,,,0.00,WUHU21623XXSP,2013-03-08 23:41:00,
2013-03-08 18:46:00,48.4,29.5,30.30,ESE,112,0.0,0.0,48,0.00,,,0.00,WUHU21623XXSP,2013-03-08 23:46:00,
2013-03-08 18:51:00,47.3,28.5,30.29,ESE,112,0.0,0.0,48,0.00,,,0.00,WUHU21623XXSP,2013-03-08 23:51:00,
2013-03-08 18:56:00,46.6,29.4,30.29,ESE,112,0.0,1.7,51,0.00,,,0.00,WUHU21623XXSP,2013-03-08 23:56:00,
2013-03-08 19:01:00,46.0,28.9,30.30,ESE,112,1.4,1.7,51,0.00,,,0.00,WUHU21623XXSP,2013-03-09 00:01:00,
2013-03-08 19:06:00,45.7,28.6,30.30,ESE,112,0.0,1.7,51,0.00,,,0.00,WUHU21623XXSP,2013-03-09 00:06:00,
2013-03-08 19:11:00,45.0,29.3,30.30,East,90,1.7,2.7,54,0.00,,,0.00,WUHU21623XXSP,2013-03-09 00:11:00,
2013-03-08 19:16:00,44.4,28.8,30.30,ESE,112,0.0,2.7,54,0.00,,,0.00,WUHU21623XXSP,2013-03-09 00:16:00,
2013-03-08 19:21:00,44.1,28.9,30.30,East,90,0.0,1.9,55,0.00,,,0.00,WUHU21623XXSP,2013-03-09 00:21:00,
2013-03-08 19:26:00,43.0,28.3,30.30,ESE,112,0.0,0.0,56,0.00,,,0.00,WUHU21623XXSP,2013-03-09 00:26:00,
2013-03-08 19:31:00,42.6,28.4,30.30,ESE,112,0.0,0.0,57,0.00,,,0.00,WUHU21623XXSP,2013-03-09 00:31:00,
2013-03-08 19:36:00,42.4,28.6,30.30,ESE,112,0.0,0.0,58,0.00,,,0.00,WUHU21623XXSP,2013-03-09 00:36:00,
2013-03-08 19:41:00,41.9,28.1,30.30,ESE,112,0.0,0.0,58,0.00,,,0.00,WUHU21623XXSP,2013-03-09 00:41:00,
2013-03-08 19:46:00,41.5,28.3,30.30,ESE,112,0.0,0.0,59,0.00,,,0.00,WUHU21623XXSP,2013-03-09 00:46:00,
2013-03-08 19:51:00,41.2,28.4,30.30,ESE,112,0.0,0.0,60,0.00,,,0.00,WUHU21623XXSP,2013-03-09 00:51:00,
2013-03-08 19:56:00,40.8,28.0,30.31,ESE,112,0.0,0.0,60,0.00,,,0.00,WUHU21623XXSP,2013-03-09 00:56:00,
2013-03-08 20:01:00,40.8,28.4,30.31,ESE,112,0.0,0.0,61,0.00,,,0.00,WUHU21623XXSP,2013-03-09 01:01:00,
2013-03-08 20:06:00,40.3,28.6,30.31,East,90,0.0,0.0,63,0.00,,,0.00,WUHU21623XXSP,2013-03-09 01:06:00,
2013-03-08 20:11:00,40.1,28.5,30.31,East,90,0.0,0.0,63,0.00,,,0.00,WUHU21623XXSP,2013-03-09 01:11:00,
2013-03-08 20:16:00,40.1,28.1,30.31,ESE,112,0.0,0.0,62,0.00,,,0.00,WUHU21623XXSP,2013-03-09 01:16:00,
2013-03-08 20:22:00,39.7,28.1,30.32,East,90,0.0,0.0,63,0.00,,,0.00,WUHU21623XXSP,2013-03-09 01:22:00,
2013-03-08 20:27:00,39.4,28.1,30.32,East,90,0.0,0.0,64,0.00,,,0.00,WUHU21623XXSP,2013-03-09 01:27:00,
2013-03-08 20:32:00,39.0,27.4,30.32,South,180,0.0,0.0,63,0.00,,,0.00,WUHU21623XXSP,2013-03-09 01:32:00,
2013-03-08 20:37:00,38.7,28.2,30.31,East,90,1.7,1.9,66,0.00,,,0.00,WUHU21623XXSP,2013-03-09 01:37:00,
2013-03-08 20:42:00,38.1,28.5,30.31,ESE,112,0.0,1.9,68,0.00,,,0.00,WUHU21623XXSP,2013-03-09 01:42:00,
2013-03-08 20:47:00,38.3,28.3,30.31,ESE,112,0.0,1.9,67,0.00,,,0.00,WUHU21623XXSP,2013-03-09 01:47:00,
2013-03-08 20:52:00,38.1,28.1,30.31,ESE,112,0.0,0.0,67,0.00,,,0.00,WUHU21623XXSP,2013-03-09 01:52:00,
2013-03-08 20:57:00,37.8,28.1,30.31,East,90,0.0,1.7,68,0.00,,,0.00,WUHU21623XXSP,2013-03-09 01:57:00,
2013-03-08 21:02:00,37.6,28.7,30.31,ESE,112,0.0,1.7,70,0.00,,,0.00,WUHU21623XXSP,2013-03-09 02:02:00,
2013-03-08 21:07:00,37.6,28.0,30.31,East,90,1.7,1.9,68,0.00,,,0.00,WUHU21623XXSP,2013-03-09 02:07:00,
2013-03-08 21:12:00,37.4,28.2,30.31,ESE,112,0.0,1.9,69,0.00,,,0.00,WUHU21623XXSP,2013-03-09 02:12:00,
2013-03-08 21:17:00,37.2,28.0,30.31,East,90,0.0,1.9,69,0.00,,,0.00,WUHU21623XXSP,2013-03-09 02:17:00,
2013-03-08 21:22:00,36.9,28.0,30.31,East,90,0.0,0.0,70,0.00,,,0.00,WUHU21623XXSP,2013-03-09 02:22:00,
2013-03-08 21:27:00,36.7,27.9,30.31,ESE,112,0.0,0.0,70,0.00,,,0.00,WUHU21623XXSP,2013-03-09 02:27:00,
2013-03-08 21:32:00,36.7,27.5,30.31,ESE,112,0.0,0.0,69,0.00,,,0.00,WUHU21623XXSP,2013-03-09 02:32:00,
2013-03-08 21:37:00,36.3,27.5,30.31,ESE,112,0.0,0.0,70,0.00,,,0.00,WUHU21623XXSP,2013-03-09 02:37:00,
2013-03-08 21:42:00,36.3,27.1,30.31,ESE,112,0.0,0.0,69,0.00,,,0.00,WUHU21623XXSP,2013-03-09 02:42:00,
2013-03-08 21:47:00,36.3,27.5,30.31,ESE,112,0.0,0.0,70,0.00,,,0.00,WUHU21623XXSP,2013-03-09 02:47:00,
2013-03-08 21:52:00,35.8,27.6,30.31,ESE,112,0.0,2.4,72,0.00,,,0.00,WUHU21623XXSP,2013-03-09 02:52:00,
2013-03-08 21:57:00,35.8,27.3,30.31,ESE,112,0.0,2.4,71,0.00,,,0.00,WUHU21623XXSP,2013-03-09 02:57:00,
2013-03-08 22:02:00,36.0,27.5,30.31,East,90,0.0,0.0,71,0.00,,,0.00,WUHU21623XXSP,2013-03-09 03:02:00,
2013-03-08 22:07:00,36.0,27.5,30.31,ESE,112,0.0,0.0,71,0.00,,,0.00,WUHU21623XXSP,2013-03-09 03:07:00,
2013-03-08 22:12:00,35.8,27.6,30.31,East,90,0.0,0.0,72,0.00,,,0.00,WUHU21623XXSP,2013-03-09 03:12:00,
2013-03-08 22:17:00,35.4,27.2,30.30,East,90,0.0,0.0,72,0.00,,,0.00,WUHU21623XXSP,2013-03-09 03:17:00,
2013-03-08 22:22:00,35.4,27.6,30.31,NNE,22,0.0,0.0,73,0.00,,,0.00,WUHU21623XXSP,2013-03-09 03:22:00,
2013-03-08 22:27:00,35.1,27.2,30.31,East,90,0.0,0.0,73,0.00,,,0.00,WUHU21623XXSP,2013-03-09 03:27:00,
2013-03-08 22:32:00,34.9,27.0,30.31,ESE,112,0.0,0.0,73,0.00,,,0.00,WUHU21623XXSP,2013-03-09 03:32:00,
2013-03-08 22:37:00,34.7,26.9,30.31,ESE,112,0.0,0.0,73,0.00,,,0.00,WUHU21623XXSP,2013-03-09 03:37:00,
2013-03-08 22:42:00,34.3,27.1,30.31,East,90,0.0,0.0,75,0.00,,,0.00,WUHU21623XXSP,2013-03-09 03:42:00,
2013-03-08 22:47:00,34.3,26.8,30.31,ESE,112,0.0,0.0,74,0.00,,,0.00,WUHU21623XXSP,2013-03-09 03:47:00,
2013-03-08 22:52:00,34.3,27.1,30.31,ESE,112,0.0,0.0,75,0.00,,,0.00,WUHU21623XXSP,2013-03-09 03:52:00,
2013-03-08 22:57:00,34.2,27.3,30.31,ESE,112,0.0,0.0,76,0.00,,,0.00,WUHU21623XXSP,2013-03-09 03:57:00,
2013-03-08 23:02:00,34.0,27.1,30.31,East,90,0.0,0.0,76,0.00,,,0.00,WUHU21623XXSP,2013-03-09 04:02:00,
2013-03-08 23:07:00,34.0,27.1,30.31,ESE,112,0.0,0.0,76,0.00,,,0.00,WUHU21623XXSP,2013-03-09 04:07:00,
2013-03-08 23:12:00,34.0,26.8,30.31,ESE,112,0.0,0.0,75,0.00,,,0.00,WUHU21623XXSP,2013-03-09 04:12:00,
2013-03-08 23:18:00,33.6,26.8,30.31,ESE,112,0.0,0.0,76,0.00,,,0.00,WUHU21623XXSP,2013-03-09 04:18:00,
2013-03-08 23:23:00,33.4,26.6,30.32,ESE,112,0.0,0.0,76,0.00,,,0.00,WUHU21623XXSP,2013-03-09 04:23:00,
2013-03-08 23:28:00,33.4,26.6,30.31,ESE,112,0.0,0.0,76,0.00,,,0.00,WUHU21623XXSP,2013-03-09 04:28:00,
2013-03-08 23:33:00,33.6,26.8,30.31,East,90,0.0,0.0,76,0.00,,,0.00,WUHU21623XXSP,2013-03-09 04:33:00,
2013-03-08 23:38:00,33.3,26.8,30.31,East,90,0.0,0.0,77,0.00,,,0.00,WUHU21623XXSP,2013-03-09 04:38:00,
2013-03-08 23:43:00,33.4,26.6,30.31,ESE,112,0.0,0.0,76,0.00,,,0.00,WUHU21623XXSP,2013-03-09 04:43:00,
2013-03-08 23:48:00,33.4,26.6,30.31,ESE,112,0.0,0.0,76,0.00,,,0.00,WUHU21623XXSP,2013-03-09 04:48:00,
2013-03-08 23:53:00,33.3,26.4,30.31,ESE,112,0.0,0.0,76,0.00,,,0.00,WUHU21623XXSP,2013-03-09 04:53:00,
2013-03-08 23:58:00,33.1,26.3,30.31,ESE,112,0.0,0.0,76,0.00,,,0.00,WUHU21623XXSP,2013-03-09 04:58:00,